CZ-6A DEB, 54425

Orbit data source: Space-Track

CZ-6A DEB, 54425 is space debris in SSO originally from a launch on Fri, 11 Nov 2022 UTC launched from the Taiyaun Space Center, China (TSC). Debris objects in space refer to the collection of defunct objects orbiting the Earth. Examples of debris include non-operational satellites, rocket bodies, and fragments generated from explosions, collisions, or faulty payload assembly.

Loading next visibility...
Identifier
54425, 2022-151EZ
Orbit
SSO
Country
Flag of CNCN / PRC
Related business
Manufacturer
SAST
Mission
Spacecraft
Bus & Motor
Unknown
Mass
Unknown
Launch date (UTC)
2022-11-11 (4 years ago)
Launch vehicle
Unknown
Launch site
Taiyaun Space Center, China (TSC)
Object type
Payload
Rocket body
Debris
Shape & HBR
Unknown shape, 0.1 m
Radar Cross Section
Medium (>0.1 m² and <1 m²)

Expand to show TLE details & history
Last TLE update: 2 days ago

TLE from 2 days ago
0 CZ-6A DEB
1 54425U 22151EZ  26171.26915683  .00002177  00000-0  40883-3 0  9991
2 54425  98.8547 282.1112 0121863 209.2987 150.1341 14.61207084191153
Epoch: 2026-06-20T06:27Z
TLE epoch observation values (Epoch: 2026-06-20T06:27:35.150Z)
Latitude
-0.00004°
Longitude
-83.27146°
Altitude
767.204 km
Speed
7.431 km/s
True Right ascension
18h 48m 26s
True Declination
0° 00' 00"
Sunlit
Object was in full shadow at epoch
Visualization orbit readout
Latitude
Unknown
Longitude
Unknown
Altitude
Unknown
Speed
Unknown
Apparent Right ascension
Unknown
Apparent Declination
Unknown
Sunlit
N/A
Visualization observer readout
Local Sidereal Time
21:33:41
Azimuth
Unknown
Elevation
Unknown
Doppler factor
Unknown
Orbital elements
Apogee altitude
772.48 km
Perigee altitude
600.299 km
Semi-major axis
7,064.526 km
Eccentricity
0.01219
Inclination
98.8547°
RAAN
282.1112°
Arg. of periapsis
209.2987°
True anomaly
150.8204°
Mean anomaly
150.1341°
Eccentric anomaly
150.47815°
Mean motion
3.65526 °/min
Orbital period
98.49 mins
BSTAR
0.00040883
Loading maneuver chart data...
Computing Atmospheric mass density...
Loading historical data...
Loading historical data...
Loading historical data...
Loading historical data...
Loading historical data...
Loading historical data...
Loading historical data...

Documentation

Showing up to 5 results
|